Auburn, NY

10:32 PM EST on February 05, 2016 (GMT -0500)
Pinfeather Place Fleming, NY | | Change Station
CLOSE
Current Station
Personal Weather Station
Location: Auburn, NY
Elevation: 741 ft
Nearby Weather Stations

Elev 741 ft 42.87 °N, 76.54 °W | Updated 5 seconds ago

Mostly Cloudy
Mostly Cloudy
26.8 °F
Feels Like 27 °F
N
0.0
Wind Variable Wind from South
Gusts 0.0 mph

Today
High -- | Low -- °F
--% Chance of Precip.
Yesterday
High -- | Low -- °F
Precip. -- in
Pressure 30.31 in
Visibility 9.0 miles
Clouds Mostly Cloudy 4600 ft
Overcast 6000 ft
Windchill 27 °F
Dew Point 16 °F
Humidity 64%
Rainfall 0.00 in
Snow Depth Not available.
7:17 AM 5:23 PM
Waning Crescent, 8% visible
METAR KSYR 060254Z 24008KT 9SM -SN BKN046 OVC060 M02/M06 A3030 RMK AO2 SLP263 P0000 60000 T10171056 58003 $
Pressure 30.31 in
Visibility 9.0 miles
Clouds Mostly Cloudy 4600 ft
Overcast 6000 ft
Windchill 27 °F
Dew Point 16 °F
Humidity 64%
Rainfall 0.00 in
Snow Depth Not available.
7:17 AM 5:23 PM
Waning Crescent, 8% visible
METAR KSYR 060254Z 24008KT 9SM -SN BKN046 OVC060 M02/M06 A3030 RMK AO2 SLP263 P0000 60000 T10171056 58003 $

10-Day Weather Forecast

Almanac

Astronomy

Feb. 05, 2016 Rise Set
Actual Time
Civil Twilight
Nautical Twilight
Astronomical Twilight
Moon
Length of Visible Light
Length of Day
Tomorrow will be .
, % of the Moon is Illuminated

Today's Extremes

State Highs State Lows

Community

WunderPhotos

Upload Photos

1,890,919 photos uploaded!

WunderBlog® & News

Nearby

Air Quality

  Air Quality AQ Index Pollutant
Not available.

Snow Depth

Station Depth Elevation

Earthquake Activity

City Distance Mag. Time & Date
Minimum magnitude displayed is 2.5.

Coastal Water Temperatures

Place Temperature

Stations

Nearby Weather Stations

Station Location Temp. Windchill Dew Point Humidity Wind Precip. Elev Updated Type
                   

Watches & Warnings

There are currently no watches in effect.